Overview Statistics Trail Chart Weather Telemetry Raw packets
 

This is the latest recevied weather packets stored in our database for station/object AA6HF. If no packets are shown the sender has not sent any weather packets the latest 10 day(s).

<< 63 64 65 66 67 68 69 >>
Time Temp. Humidity Pressure Rain* Wind** Luminosity Snow
1788241101 30° C 22% 1008.1 hPa 0 mm - - -
1788240801 30° C 22% 1008.1 hPa 0 mm - - -
1788240501 30.56° C 22% 1008 hPa 0 mm - - -
1788240201 30.56° C 22% 1008 hPa 0 mm - - -
1788239901 30.56° C 21% 1007.9 hPa 0 mm - - -
1788239601 30.56° C 22% 1007.9 hPa 0 mm - - -
1788239301 30.56° C 22% 1007.9 hPa 0 mm - - -
1788239001 31.11° C 21% 1007.7 hPa 0 mm - - -
1788238701 31.11° C 21% 1007.7 hPa 0 mm - - -
1788238401 31.11° C 21% 1007.8 hPa 0 mm - - -
1788238101 31.67° C 21% 1007.8 hPa 0 mm - - -
1788237801 31.67° C 21% 1007.6 hPa 0 mm - - -
1788237501 31.67° C 21% 1007.7 hPa 0 mm - - -
1788237201 31.67° C 21% 1007.8 hPa 0 mm - - -
1788236901 32.22° C 20% 1007.7 hPa 0 mm - - -
1788236601 32.78° C 20% 1007.7 hPa 0 mm - - -
1788236301 33.33° C 19% 1007.7 hPa 0 mm - - -
1788236001 33.89° C 17% 1007.7 hPa 0 mm - - -
1788235701 33.89° C 18% 1007.6 hPa 0 mm - - -
1788235401 33.89° C 17% 1007.4 hPa 0 mm - - -
1788235101 33.89° C 18% 1007.5 hPa 0 mm - - -
1788234801 33.89° C 17% 1007.3 hPa 0 mm - - -
1788234501 33.33° C 18% 1007.3 hPa 0 mm - - -
1788234201 33.33° C 20% 1007.2 hPa 0 mm - - -
1788233901 33.89° C 20% 1007.3 hPa 0 mm - - -

* Rain latest hour (hover to see other rain measurements)
** Current wind speed in m/s (hover to see current wind gust speed)